Time,TemperatureF,DewpointF,PressureIn,WindDirection,WindDirectionDegrees,WindSpeedMPH,WindSpeedGustMPH,Humidity,HourlyPrecipIn,Conditions,Clouds,dailyrainin,SoftwareType,DateUTC
2013-02-04 00:00:00,55.9,40.5,30.01,South,180,0.0,0.0,56,0.00,,---,0.00,VWS V13.01,2013-02-04 05:00:00,
2013-02-04 00:01:00,55.9,40.5,30.01,South,180,0.0,0.0,56,0.00,,---,0.00,VWS V13.01,2013-02-04 05:01:00,
2013-02-04 00:03:00,55.9,40.5,30.01,South,180,0.0,0.0,56,0.00,,---,0.00,VWS V13.01,2013-02-04 05:03:00,
2013-02-04 00:08:00,55.9,40.5,30.01,South,180,0.0,0.0,56,0.00,,---,0.00,VWS V13.01,2013-02-04 05:08:00,
2013-02-04 00:13:00,55.9,40.9,30.01,South,180,0.0,0.0,57,0.00,,---,0.00,VWS V13.01,2013-02-04 05:13:00,
2013-02-04 00:18:00,55.8,40.8,30.01,South,180,0.0,0.0,57,0.00,,---,0.00,VWS V13.01,2013-02-04 05:18:00,
2013-02-04 00:23:00,55.8,40.8,30.00,South,180,0.0,0.0,57,0.00,,---,0.00,VWS V13.01,2013-02-04 05:23:00,
2013-02-04 00:28:00,55.6,41.0,30.00,South,180,0.0,0.0,58,0.00,,---,0.00,VWS V13.01,2013-02-04 05:28:00,
2013-02-04 00:33:00,55.6,41.0,30.00,South,180,0.0,0.0,58,0.00,,---,0.00,VWS V13.01,2013-02-04 05:33:00,
2013-02-04 00:38:00,55.2,40.7,30.00,South,180,0.0,0.0,58,0.00,,---,0.00,VWS V13.01,2013-02-04 05:38:00,
2013-02-04 00:43:00,55.0,40.5,30.01,NW,315,0.0,0.0,58,0.00,,---,0.00,VWS V13.01,2013-02-04 05:43:00,
2013-02-04 00:48:00,54.7,40.7,30.01,WNW,292,0.0,0.0,59,0.00,,---,0.00,VWS V13.01,2013-02-04 05:48:00,
2013-02-04 00:53:00,54.7,40.7,30.01,WNW,292,0.0,0.0,59,0.00,,---,0.00,VWS V13.01,2013-02-04 05:53:00,
2013-02-04 00:58:00,54.9,40.8,30.01,WNW,292,0.0,0.0,59,0.00,,---,0.00,VWS V13.01,2013-02-04 05:58:00,
2013-02-04 01:03:00,54.9,41.2,30.01,WNW,292,0.0,0.0,60,0.00,,---,0.00,VWS V13.01,2013-02-04 06:03:00,
2013-02-04 01:08:00,54.9,41.2,30.01,WNW,292,0.0,0.0,60,0.00,,---,0.00,VWS V13.01,2013-02-04 06:08:00,
2013-02-04 01:13:00,55.0,41.4,30.00,WNW,292,0.0,0.0,60,0.00,,---,0.00,VWS V13.01,2013-02-04 06:13:00,
2013-02-04 01:18:00,54.9,41.2,30.00,WNW,292,0.0,0.0,60,0.00,,---,0.00,VWS V13.01,2013-02-04 06:18:00,
2013-02-04 01:23:00,54.9,41.2,30.01,WNW,292,0.0,0.0,60,0.00,,---,0.00,VWS V13.01,2013-02-04 06:23:00,
2013-02-04 01:28:00,54.9,41.2,30.00,WNW,292,0.0,0.0,60,0.00,,---,0.00,VWS V13.01,2013-02-04 06:28:00,
2013-02-04 01:33:00,54.9,41.2,30.00,WNW,292,0.0,0.0,60,0.00,,---,0.00,VWS V13.01,2013-02-04 06:33:00,
2013-02-04 01:38:00,54.5,40.9,30.00,WNW,292,0.0,0.0,60,0.00,,---,0.00,VWS V13.01,2013-02-04 06:38:00,
2013-02-04 01:43:00,54.5,40.9,30.00,WNW,292,0.0,0.0,60,0.00,,---,0.00,VWS V13.01,2013-02-04 06:43:00,
2013-02-04 01:48:00,54.5,40.9,30.00,WNW,292,0.0,0.0,60,0.00,,---,0.00,VWS V13.01,2013-02-04 06:48:00,
2013-02-04 01:53:00,54.5,41.3,30.00,WNW,292,0.0,0.0,61,0.00,,---,0.00,VWS V13.01,2013-02-04 06:53:00,
2013-02-04 01:58:00,54.5,41.3,30.00,WNW,292,0.0,0.0,61,0.00,,---,0.00,VWS V13.01,2013-02-04 06:58:00,
2013-02-04 02:03:00,54.3,41.2,30.00,WNW,292,0.0,0.0,61,0.00,,---,0.00,VWS V13.01,2013-02-04 07:03:00,
2013-02-04 02:08:00,54.3,41.2,30.00,WNW,292,0.0,0.0,61,0.00,,---,0.00,VWS V13.01,2013-02-04 07:08:00,
2013-02-04 02:13:00,54.3,41.6,29.99,WNW,292,0.0,0.0,62,0.00,,---,0.00,VWS V13.01,2013-02-04 07:13:00,
2013-02-04 02:18:00,54.3,41.6,29.99,WNW,292,0.0,0.0,62,0.00,,---,0.00,VWS V13.01,2013-02-04 07:18:00,
2013-02-04 02:23:00,54.1,41.8,29.99,WNW,292,0.0,0.0,63,0.00,,---,0.00,VWS V13.01,2013-02-04 07:23:00,
2013-02-04 02:28:00,54.0,41.7,29.99,WNW,292,0.0,0.0,63,0.00,,---,0.00,VWS V13.01,2013-02-04 07:28:00,
2013-02-04 02:33:00,53.8,41.5,29.99,WNW,292,0.0,0.0,63,0.00,,---,0.00,VWS V13.01,2013-02-04 07:33:00,
2013-02-04 02:38:00,53.8,41.9,29.99,WNW,292,0.0,0.0,64,0.00,,---,0.00,VWS V13.01,2013-02-04 07:38:00,
2013-02-04 02:43:00,53.8,41.9,29.99,WNW,292,0.0,0.0,64,0.00,,---,0.00,VWS V13.01,2013-02-04 07:43:00,
2013-02-04 02:48:00,54.0,42.5,30.00,WNW,292,0.0,0.0,65,0.00,,---,0.00,VWS V13.01,2013-02-04 07:48:00,
2013-02-04 02:53:00,53.8,42.3,30.00,WNW,292,0.0,0.0,65,0.00,,---,0.00,VWS V13.01,2013-02-04 07:53:00,
2013-02-04 02:58:00,53.8,42.7,30.00,WNW,292,0.0,0.0,66,0.00,,---,0.00,VWS V13.01,2013-02-04 07:58:00,
2013-02-04 03:03:00,53.8,42.7,30.00,WNW,292,0.0,0.0,66,0.00,,---,0.00,VWS V13.01,2013-02-04 08:03:00,
2013-02-04 03:08:00,53.8,42.7,30.00,WNW,292,0.0,0.0,66,0.00,,---,0.00,VWS V13.01,2013-02-04 08:08:00,
2013-02-04 03:13:00,53.8,43.5,29.99,WNW,292,0.0,0.0,68,0.00,,---,0.00,VWS V13.01,2013-02-04 08:13:00,
2013-02-04 03:18:00,54.0,44.0,29.99,WNW,292,0.0,0.0,69,0.00,,---,0.00,VWS V13.01,2013-02-04 08:18:00,
2013-02-04 03:23:00,54.0,44.0,29.99,WNW,292,0.0,0.0,69,0.00,,---,0.00,VWS V13.01,2013-02-04 08:23:00,
2013-02-04 03:28:00,54.0,44.4,30.00,WNW,292,0.0,0.0,70,0.00,,---,0.00,VWS V13.01,2013-02-04 08:28:00,
2013-02-04 03:33:00,54.0,44.4,30.00,WNW,292,0.0,0.0,70,0.00,,---,0.00,VWS V13.01,2013-02-04 08:33:00,
2013-02-04 03:38:00,53.8,44.2,30.00,WNW,292,0.0,0.0,70,0.00,,---,0.00,VWS V13.01,2013-02-04 08:38:00,
2013-02-04 03:43:00,53.8,44.6,30.00,WNW,292,0.0,0.0,71,0.00,,---,0.00,VWS V13.01,2013-02-04 08:43:00,
2013-02-04 03:48:00,53.8,44.6,30.00,WNW,292,0.0,0.0,71,0.00,,---,0.00,VWS V13.01,2013-02-04 08:48:00,
2013-02-04 03:53:00,53.6,44.4,30.00,WNW,292,0.0,0.0,71,0.00,,---,0.00,VWS V13.01,2013-02-04 08:53:00,
2013-02-04 03:58:00,53.6,44.8,30.00,WNW,292,0.0,0.0,72,0.00,,---,0.00,VWS V13.01,2013-02-04 08:58:00,
2013-02-04 04:03:00,53.8,45.0,30.00,WNW,292,0.0,0.0,72,0.00,,---,0.00,VWS V13.01,2013-02-04 09:03:00,
2013-02-04 04:08:00,53.8,45.0,30.00,WNW,292,0.0,0.0,72,0.00,,---,0.00,VWS V13.01,2013-02-04 09:08:00,
2013-02-04 04:13:00,53.4,45.0,30.00,WNW,292,0.0,0.0,73,0.00,,---,0.00,VWS V13.01,2013-02-04 09:13:00,
2013-02-04 04:18:00,53.4,45.0,30.00,WNW,292,0.0,0.0,73,0.00,,---,0.00,VWS V13.01,2013-02-04 09:18:00,
2013-02-04 04:23:00,53.4,45.0,30.00,WNW,292,0.0,0.0,73,0.00,,---,0.00,VWS V13.01,2013-02-04 09:23:00,
2013-02-04 04:28:00,53.4,45.0,30.00,NW,315,0.0,0.0,73,0.00,,---,0.00,VWS V13.01,2013-02-04 09:28:00,
2013-02-04 04:33:00,53.4,44.6,30.00,NW,315,0.0,0.0,72,0.00,,---,0.00,VWS V13.01,2013-02-04 09:33:00,
2013-02-04 04:38:00,53.4,44.3,30.00,NNW,338,0.0,0.0,71,0.00,,---,0.00,VWS V13.01,2013-02-04 09:38:00,
2013-02-04 04:43:00,53.6,44.1,30.00,NNW,338,0.0,0.0,70,0.00,,---,0.00,VWS V13.01,2013-02-04 09:43:00,
2013-02-04 04:48:00,53.6,43.3,30.00,NNW,338,0.0,0.0,68,0.00,,---,0.00,VWS V13.01,2013-02-04 09:48:00,
2013-02-04 04:53:00,53.8,43.1,30.00,WNW,292,0.0,0.0,67,0.00,,---,0.00,VWS V13.01,2013-02-04 09:53:00,
2013-02-04 04:58:00,53.8,42.7,30.00,West,270,0.0,0.4,66,0.00,,---,0.00,VWS V13.01,2013-02-04 09:58:00,
2013-02-04 05:03:00,53.8,42.3,30.00,NNW,338,0.0,0.0,65,0.00,,---,0.00,VWS V13.01,2013-02-04 10:03:00,
2013-02-04 05:08:00,53.4,41.6,30.00,NNW,338,0.0,0.0,64,0.00,,---,0.00,VWS V13.01,2013-02-04 10:08:00,
2013-02-04 05:13:00,53.6,41.3,30.00,NNW,338,0.0,0.0,63,0.00,,---,0.00,VWS V13.01,2013-02-04 10:13:00,
2013-02-04 05:18:00,53.6,40.9,30.01,NNW,338,0.0,0.0,62,0.00,,---,0.00,VWS V13.01,2013-02-04 10:18:00,
2013-02-04 05:23:00,53.4,40.3,30.00,WNW,292,0.0,0.0,61,0.00,,---,0.00,VWS V13.01,2013-02-04 10:23:00,
2013-02-04 05:28:00,53.2,39.7,30.01,NNW,338,0.0,0.0,60,0.00,,---,0.00,VWS V13.01,2013-02-04 10:28:00,
2013-02-04 05:33:00,53.2,39.3,30.01,NW,315,0.0,0.0,59,0.00,,---,0.00,VWS V13.01,2013-02-04 10:33:00,
2013-02-04 05:38:00,53.2,39.3,30.01,NNW,338,0.0,0.0,59,0.00,,---,0.00,VWS V13.01,2013-02-04 10:38:00,
2013-02-04 05:43:00,53.1,38.7,30.01,NNW,338,0.0,0.0,58,0.00,,---,0.00,VWS V13.01,2013-02-04 10:43:00,
2013-02-04 05:48:00,53.1,38.7,30.01,NNW,338,0.0,0.0,58,0.00,,---,0.00,VWS V13.01,2013-02-04 10:48:00,
2013-02-04 05:53:00,52.7,38.3,30.01,NNW,338,0.0,0.0,58,0.00,,---,0.00,VWS V13.01,2013-02-04 10:53:00,
2013-02-04 05:58:00,52.7,38.3,30.02,WNW,292,0.0,0.0,58,0.00,,---,0.00,VWS V13.01,2013-02-04 10:58:00,
2013-02-04 06:03:00,52.7,38.3,30.02,WNW,292,0.0,0.0,58,0.00,,---,0.00,VWS V13.01,2013-02-04 11:03:00,
2013-02-04 06:08:00,52.7,38.8,30.02,WNW,292,0.0,0.0,59,0.00,,---,0.00,VWS V13.01,2013-02-04 11:08:00,
2013-02-04 06:13:00,52.5,38.2,30.02,WNW,292,0.0,0.0,58,0.00,,---,0.00,VWS V13.01,2013-02-04 11:13:00,
2013-02-04 06:18:00,52.5,38.2,30.02,WNW,292,0.0,0.0,58,0.00,,---,0.00,VWS V13.01,2013-02-04 11:18:00,
2013-02-04 06:23:00,52.3,38.0,30.02,WNW,292,0.0,0.0,58,0.00,,---,0.00,VWS V13.01,2013-02-04 11:23:00,
2013-02-04 06:28:00,52.2,37.8,30.02,WNW,292,0.0,0.0,58,0.00,,---,0.00,VWS V13.01,2013-02-04 11:28:00,
2013-02-04 06:33:00,52.2,38.3,30.02,WNW,292,0.0,0.0,59,0.00,,---,0.00,VWS V13.01,2013-02-04 11:33:00,
2013-02-04 06:38:00,51.8,37.9,30.02,WNW,292,0.0,0.0,59,0.00,,---,0.00,VWS V13.01,2013-02-04 11:38:00,
2013-02-04 06:43:00,51.8,37.9,30.02,WNW,292,0.0,0.0,59,0.00,,---,0.00,VWS V13.01,2013-02-04 11:43:00,
2013-02-04 06:48:00,51.4,37.6,30.02,WNW,292,0.0,0.0,59,0.00,,---,0.00,VWS V13.01,2013-02-04 11:48:00,
2013-02-04 06:53:00,51.4,38.0,30.02,WNW,292,0.0,0.0,60,0.00,,---,0.00,VWS V13.01,2013-02-04 11:53:00,
2013-02-04 06:58:00,51.3,37.9,30.02,WNW,292,0.0,0.0,60,0.00,,---,0.00,VWS V13.01,2013-02-04 11:58:00,
2013-02-04 07:03:00,51.3,37.9,30.03,WNW,292,0.0,0.0,60,0.00,,---,0.00,VWS V13.01,2013-02-04 12:03:00,
2013-02-04 07:08:00,51.1,38.1,30.03,WNW,292,0.0,0.0,61,0.00,,---,0.00,VWS V13.01,2013-02-04 12:08:00,
2013-02-04 07:13:00,50.9,38.0,30.03,WNW,292,0.0,0.0,61,0.00,,---,0.00,VWS V13.01,2013-02-04 12:13:00,
2013-02-04 07:18:00,50.9,38.0,30.03,WNW,292,0.0,0.0,61,0.00,,---,0.00,VWS V13.01,2013-02-04 12:18:00,
2013-02-04 07:23:00,50.9,38.4,30.04,WNW,292,0.0,0.0,62,0.00,,---,0.00,VWS V13.01,2013-02-04 12:23:00,
2013-02-04 07:28:00,50.9,38.4,30.03,WNW,292,0.0,0.0,62,0.00,,---,0.00,VWS V13.01,2013-02-04 12:28:00,
2013-02-04 07:33:00,50.9,38.8,30.04,WNW,292,0.0,0.0,63,0.00,,---,0.00,VWS V13.01,2013-02-04 12:33:00,
2013-02-04 07:38:00,51.3,39.1,30.04,WNW,292,0.0,0.0,63,0.00,,---,0.00,VWS V13.01,2013-02-04 12:38:00,
2013-02-04 07:43:00,51.4,39.7,30.04,WNW,292,0.0,0.0,64,0.00,,---,0.00,VWS V13.01,2013-02-04 12:43:00,
2013-02-04 07:48:00,51.8,40.0,30.04,WNW,292,0.0,0.0,64,0.00,,---,0.00,VWS V13.01,2013-02-04 12:48:00,
2013-02-04 07:53:00,52.2,40.8,30.04,WNW,292,0.0,0.0,65,0.00,,---,0.00,VWS V13.01,2013-02-04 12:53:00,
2013-02-04 07:58:00,52.5,41.1,30.04,WNW,292,0.0,0.0,65,0.00,,---,0.00,VWS V13.01,2013-02-04 12:58:00,
2013-02-04 08:03:00,53.1,41.2,30.04,WNW,292,0.0,0.0,64,0.00,,---,0.00,VWS V13.01,2013-02-04 13:03:00,
2013-02-04 08:08:00,53.2,41.0,30.05,WNW,292,0.0,0.0,63,0.00,,---,0.00,VWS V13.01,2013-02-04 13:08:00,
2013-02-04 08:13:00,53.8,41.5,30.05,WNW,292,0.0,0.0,63,0.00,,---,0.00,VWS V13.01,2013-02-04 13:13:00,
2013-02-04 08:18:00,54.0,41.2,30.05,NW,315,0.0,0.0,62,0.00,,---,0.00,VWS V13.01,2013-02-04 13:18:00,
2013-02-04 08:23:00,54.3,41.2,30.05,NW,315,0.0,2.2,61,0.00,,---,0.00,VWS V13.01,2013-02-04 13:23:00,
2013-02-04 08:28:00,54.7,41.1,30.05,NW,315,0.0,2.2,60,0.00,,---,0.00,VWS V13.01,2013-02-04 13:28:00,
2013-02-04 08:33:00,55.0,41.4,30.05,NW,315,0.0,2.2,60,0.00,,---,0.00,VWS V13.01,2013-02-04 13:33:00,
2013-02-04 08:38:00,55.6,41.5,30.05,NW,315,0.0,2.2,59,0.00,,---,0.00,VWS V13.01,2013-02-04 13:38:00,
2013-02-04 08:43:00,56.1,42.0,30.05,West,270,0.0,2.2,59,0.00,,---,0.00,VWS V13.01,2013-02-04 13:43:00,
2013-02-04 08:48:00,56.3,41.7,30.05,NW,315,0.0,2.2,58,0.00,,---,0.00,VWS V13.01,2013-02-04 13:48:00,
2013-02-04 08:53:00,56.7,41.6,30.05,WNW,292,0.0,2.2,57,0.00,,---,0.00,VWS V13.01,2013-02-04 13:53:00,
2013-02-04 08:58:00,57.4,42.3,30.05,West,270,0.0,2.2,57,0.00,,---,0.00,VWS V13.01,2013-02-04 13:58:00,
2013-02-04 09:03:00,57.9,42.3,30.05,West,270,0.0,0.0,56,0.00,,---,0.00,VWS V13.01,2013-02-04 14:03:00,
2013-02-04 09:08:00,58.1,42.0,30.05,WNW,292,0.0,0.0,55,0.00,,---,0.00,VWS V13.01,2013-02-04 14:08:00,
2013-02-04 09:13:00,58.6,42.5,30.06,WNW,292,0.0,0.0,55,0.00,,---,0.00,VWS V13.01,2013-02-04 14:13:00,
2013-02-04 09:18:00,58.8,41.7,30.05,NW,315,0.0,0.0,53,0.00,,---,0.00,VWS V13.01,2013-02-04 14:18:00,
2013-02-04 09:23:00,59.2,42.1,30.06,West,270,0.0,0.0,53,0.00,,---,0.00,VWS V13.01,2013-02-04 14:23:00,
2013-02-04 09:28:00,59.7,42.6,30.06,WNW,292,0.0,0.0,53,0.00,,---,0.00,VWS V13.01,2013-02-04 14:28:00,
2013-02-04 09:33:00,60.1,41.9,30.06,NW,315,0.0,2.0,51,0.00,,---,0.00,VWS V13.01,2013-02-04 14:33:00,
2013-02-04 09:38:00,60.3,41.6,30.05,West,270,0.0,2.0,50,0.00,,---,0.00,VWS V13.01,2013-02-04 14:38:00,
2013-02-04 09:43:00,60.6,41.4,30.06,WNW,292,0.0,2.0,49,0.00,,---,0.00,VWS V13.01,2013-02-04 14:43:00,
2013-02-04 09:48:00,61.2,41.3,30.06,WSW,248,0.0,2.0,48,0.00,,---,0.00,VWS V13.01,2013-02-04 14:48:00,
2013-02-04 09:53:00,61.5,41.1,30.06,WNW,292,0.0,2.0,47,0.00,,---,0.00,VWS V13.01,2013-02-04 14:53:00,
2013-02-04 09:58:00,61.9,40.9,30.06,WNW,292,0.0,2.0,46,0.00,,---,0.00,VWS V13.01,2013-02-04 14:58:00,
2013-02-04 10:03:00,62.4,41.4,30.06,West,270,0.0,0.0,46,0.00,,---,0.00,VWS V13.01,2013-02-04 15:03:00,
2013-02-04 10:08:00,63.0,41.3,30.06,West,270,0.0,0.0,45,0.00,,---,0.00,VWS V13.01,2013-02-04 15:08:00,
2013-02-04 10:13:00,63.5,40.6,30.06,ESE,112,0.0,0.0,43,0.00,,---,0.00,VWS V13.01,2013-02-04 15:13:00,
2013-02-04 10:18:00,64.2,41.3,30.05,ESE,112,0.0,0.0,43,0.00,,---,0.00,VWS V13.01,2013-02-04 15:18:00,
2013-02-04 10:23:00,64.9,41.9,30.06,ESE,112,0.0,0.0,43,0.00,,---,0.00,VWS V13.01,2013-02-04 15:23:00,
2013-02-04 10:28:00,65.5,41.2,30.05,NE,45,0.0,0.0,41,0.00,,---,0.00,VWS V13.01,2013-02-04 15:28:00,
2013-02-04 10:33:00,65.8,41.5,30.05,NE,45,0.0,0.0,41,0.00,,---,0.00,VWS V13.01,2013-02-04 15:33:00,
2013-02-04 10:38:00,66.6,41.5,30.05,ENE,68,0.0,0.0,40,0.00,,---,0.00,VWS V13.01,2013-02-04 15:38:00,
2013-02-04 10:43:00,67.1,40.7,30.05,North,0,0.0,0.0,38,0.00,,---,0.00,VWS V13.01,2013-02-04 15:43:00,
2013-02-04 10:48:00,67.5,40.3,30.05,WSW,248,0.0,0.0,37,0.00,,---,0.00,VWS V13.01,2013-02-04 15:48:00,
2013-02-04 10:53:00,67.6,40.5,30.04,WSW,248,0.0,0.0,37,0.00,,---,0.00,VWS V13.01,2013-02-04 15:53:00,
2013-02-04 10:58:00,68.4,41.1,30.04,ENE,68,0.0,0.0,37,0.00,,---,0.00,VWS V13.01,2013-02-04 15:58:00,
2013-02-04 11:03:00,68.7,40.7,30.04,SW,225,0.0,0.0,36,0.00,,---,0.00,VWS V13.01,2013-02-04 16:03:00,
2013-02-04 11:08:00,68.9,40.2,30.04,East,90,0.0,0.0,35,0.00,,---,0.00,VWS V13.01,2013-02-04 16:08:00,
2013-02-04 11:13:00,69.3,39.7,30.04,East,90,0.0,0.0,34,0.00,,---,0.00,VWS V13.01,2013-02-04 16:13:00,
2013-02-04 11:18:00,70.0,40.3,30.03,SSE,158,0.0,0.0,34,0.00,,---,0.00,VWS V13.01,2013-02-04 16:18:00,
2013-02-04 11:23:00,70.2,39.0,30.03,SSE,158,0.0,0.0,32,0.00,,---,0.00,VWS V13.01,2013-02-04 16:23:00,
2013-02-04 11:28:00,70.5,38.5,30.03,SW,225,0.0,0.0,31,0.00,,---,0.00,VWS V13.01,2013-02-04 16:28:00,
2013-02-04 11:33:00,70.7,37.8,30.03,SW,225,0.0,0.0,30,0.00,,---,0.00,VWS V13.01,2013-02-04 16:33:00,
2013-02-04 11:38:00,71.1,37.2,30.02,SSW,202,0.0,0.0,29,0.00,,---,0.00,VWS V13.01,2013-02-04 16:38:00,
2013-02-04 11:43:00,71.4,37.5,30.03,ESE,112,0.0,0.0,29,0.00,,---,0.00,VWS V13.01,2013-02-04 16:43:00,
2013-02-04 11:48:00,72.0,37.1,30.02,SW,225,0.0,0.9,28,0.00,,---,0.00,VWS V13.01,2013-02-04 16:48:00,
2013-02-04 11:53:00,72.5,37.6,30.02,South,180,0.0,0.9,28,0.00,,---,0.00,VWS V13.01,2013-02-04 16:53:00,
2013-02-04 11:58:00,72.9,37.0,30.02,SSW,202,0.0,3.4,27,0.00,,---,0.00,VWS V13.01,2013-02-04 16:58:00,
2013-02-04 12:03:00,73.0,36.2,30.01,SW,225,0.0,0.0,26,0.00,,---,0.00,VWS V13.01,2013-02-04 17:03:00,
2013-02-04 12:08:00,73.2,36.3,30.01,West,270,0.0,4.0,26,0.00,,---,0.00,VWS V13.01,2013-02-04 17:08:00,
2013-02-04 12:13:00,73.2,36.3,30.01,SSE,158,0.0,4.0,26,0.00,,---,0.00,VWS V13.01,2013-02-04 17:13:00,
2013-02-04 12:18:00,73.6,36.6,30.01,West,270,0.0,4.0,26,0.00,,---,0.00,VWS V13.01,2013-02-04 17:18:00,
2013-02-04 12:23:00,73.6,36.6,30.01,South,180,1.1,4.0,26,0.00,,---,0.00,VWS V13.01,2013-02-04 17:23:00,
2013-02-04 12:28:00,73.8,35.8,30.00,SE,135,0.0,4.0,25,0.00,,---,0.00,VWS V13.01,2013-02-04 17:28:00,
2013-02-04 12:33:00,73.9,35.9,30.00,WNW,292,0.0,4.0,25,0.00,,---,0.00,VWS V13.01,2013-02-04 17:33:00,
2013-02-04 12:38:00,74.1,36.1,30.00,ESE,112,0.0,4.0,25,0.00,,---,0.00,VWS V13.01,2013-02-04 17:38:00,
2013-02-04 12:43:00,74.1,36.1,29.99,NE,45,0.0,4.0,25,0.00,,---,0.00,VWS V13.01,2013-02-04 17:43:00,
2013-02-04 12:48:00,74.3,35.2,29.99,WNW,292,0.0,4.7,24,0.00,,---,0.00,VWS V13.01,2013-02-04 17:48:00,
2013-02-04 12:53:00,74.7,36.5,29.99,West,270,0.0,4.7,25,0.00,,---,0.00,VWS V13.01,2013-02-04 17:53:00,
2013-02-04 12:58:00,75.4,38.2,29.99,SSW,202,0.0,4.7,26,0.00,,---,0.00,VWS V13.01,2013-02-04 17:58:00,
2013-02-04 13:03:00,75.4,37.2,29.98,SW,225,0.0,2.7,25,0.00,,---,0.00,VWS V13.01,2013-02-04 18:03:00,
2013-02-04 13:08:00,75.6,37.3,29.98,WSW,248,0.0,2.7,25,0.00,,---,0.00,VWS V13.01,2013-02-04 18:08:00,
2013-02-04 13:13:00,75.9,38.6,29.97,WSW,248,2.0,4.0,26,0.00,,---,0.00,VWS V13.01,2013-02-04 18:13:00,
2013-02-04 13:18:00,76.1,36.7,29.97,WSW,248,0.0,4.0,24,0.00,,---,0.00,VWS V13.01,2013-02-04 18:18:00,
2013-02-04 13:23:00,76.1,36.7,29.97,ESE,112,0.0,4.0,24,0.00,,---,0.00,VWS V13.01,2013-02-04 18:23:00,
2013-02-04 13:28:00,76.1,36.7,29.96,SE,135,2.7,6.5,24,0.00,,---,0.00,VWS V13.01,2013-02-04 18:28:00,
2013-02-04 13:33:00,76.1,36.7,29.96,ENE,68,0.0,6.5,24,0.00,,---,0.00,VWS V13.01,2013-02-04 18:33:00,
2013-02-04 13:38:00,76.5,38.1,29.96,SSE,158,0.0,6.5,25,0.00,,---,0.00,VWS V13.01,2013-02-04 18:38:00,
2013-02-04 13:43:00,76.6,37.2,29.96,SE,135,0.0,6.5,24,0.00,,---,0.00,VWS V13.01,2013-02-04 18:43:00,
2013-02-04 13:48:00,76.6,38.2,29.96,SSE,158,0.0,6.5,25,0.00,,---,0.00,VWS V13.01,2013-02-04 18:48:00,
2013-02-04 13:53:00,77.2,38.7,29.96,South,180,0.0,6.5,25,0.00,,---,0.00,VWS V13.01,2013-02-04 18:53:00,
2013-02-04 13:58:00,77.4,38.8,29.95,ESE,112,0.0,6.5,25,0.00,,---,0.00,VWS V13.01,2013-02-04 18:58:00,
2013-02-04 14:03:00,77.4,38.8,29.95,South,180,0.0,5.4,25,0.00,,---,0.00,VWS V13.01,2013-02-04 19:03:00,
2013-02-04 14:08:00,77.5,39.0,29.95,West,270,0.0,5.4,25,0.00,,---,0.00,VWS V13.01,2013-02-04 19:08:00,
2013-02-04 14:13:00,77.9,38.2,29.95,SW,225,0.0,5.4,24,0.00,,---,0.00,VWS V13.01,2013-02-04 19:13:00,
2013-02-04 14:18:00,77.7,37.0,29.95,ESE,112,0.0,5.4,23,0.00,,---,0.00,VWS V13.01,2013-02-04 19:18:00,
2013-02-04 14:23:00,77.9,40.3,29.94,South,180,5.8,7.4,26,0.00,,---,0.00,VWS V13.01,2013-02-04 19:23:00,
2013-02-04 14:28:00,76.8,40.3,29.94,SSW,202,0.0,8.1,27,0.00,,---,0.00,VWS V13.01,2013-02-04 19:28:00,
2013-02-04 14:33:00,76.5,41.9,29.94,SE,135,2.0,8.1,29,0.00,,---,0.00,VWS V13.01,2013-02-04 19:33:00,
2013-02-04 14:38:00,76.3,42.6,29.94,SE,135,2.5,8.3,30,0.00,,---,0.00,VWS V13.01,2013-02-04 19:38:00,
2013-02-04 14:43:00,76.3,42.6,29.94,SSE,158,4.3,8.3,30,0.00,,---,0.00,VWS V13.01,2013-02-04 19:43:00,
2013-02-04 14:48:00,76.5,43.6,29.94,East,90,2.5,8.3,31,0.00,,---,0.00,VWS V13.01,2013-02-04 19:48:00,
2013-02-04 14:53:00,76.1,43.3,29.93,ESE,112,0.0,8.3,31,0.00,,---,0.00,VWS V13.01,2013-02-04 19:53:00,
2013-02-04 14:58:00,75.6,43.7,29.93,SE,135,0.0,8.3,32,0.00,,---,0.00,VWS V13.01,2013-02-04 19:58:00,
2013-02-04 15:03:00,75.6,44.5,29.94,SE,135,1.8,8.7,33,0.00,,---,0.00,VWS V13.01,2013-02-04 20:03:00,
2013-02-04 15:08:00,75.0,44.0,29.94,SE,135,3.6,8.7,33,0.00,,---,0.00,VWS V13.01,2013-02-04 20:08:00,
2013-02-04 15:13:00,74.7,43.7,29.94,SE,135,2.5,8.7,33,0.00,,---,0.00,VWS V13.01,2013-02-04 20:13:00,
2013-02-04 15:18:00,74.3,44.1,29.94,ESE,112,6.5,8.7,34,0.00,,---,0.00,VWS V13.01,2013-02-04 20:18:00,
2013-02-04 15:23:00,74.1,44.8,29.94,SE,135,1.8,8.7,35,0.00,,---,0.00,VWS V13.01,2013-02-04 20:23:00,
2013-02-04 15:28:00,73.8,45.2,29.94,SE,135,3.1,8.7,36,0.00,,---,0.00,VWS V13.01,2013-02-04 20:28:00,
2013-02-04 15:33:00,73.6,45.0,29.94,SSE,158,0.0,8.7,36,0.00,,---,0.00,VWS V13.01,2013-02-04 20:33:00,
2013-02-04 15:38:00,73.8,45.2,29.93,SE,135,0.0,8.7,36,0.00,,---,0.00,VWS V13.01,2013-02-04 20:38:00,
2013-02-04 15:43:00,73.8,45.9,29.93,SE,135,2.5,8.7,37,0.00,,---,0.00,VWS V13.01,2013-02-04 20:43:00,
2013-02-04 15:48:00,73.8,45.9,29.93,SE,135,0.0,8.7,37,0.00,,---,0.00,VWS V13.01,2013-02-04 20:48:00,
2013-02-04 15:53:00,74.1,46.9,29.94,ESE,112,0.0,8.7,38,0.00,,---,0.00,VWS V13.01,2013-02-04 20:53:00,
2013-02-04 15:58:00,74.7,46.7,29.93,ESE,112,2.0,8.7,37,0.00,,---,0.00,VWS V13.01,2013-02-04 20:58:00,
2013-02-04 16:03:00,75.0,47.0,29.93,SE,135,0.0,5.6,37,0.00,,---,0.00,VWS V13.01,2013-02-04 21:03:00,
2013-02-04 16:08:00,75.4,46.6,29.94,ESE,112,0.2,6.5,36,0.00,,---,0.00,VWS V13.01,2013-02-04 21:08:00,
2013-02-04 16:13:00,75.0,46.3,29.94,SE,135,3.1,6.5,36,0.00,,---,0.00,VWS V13.01,2013-02-04 21:13:00,
2013-02-04 16:18:00,74.7,46.0,29.94,SE,135,0.0,6.5,36,0.00,,---,0.00,VWS V13.01,2013-02-04 21:18:00,
2013-02-04 16:23:00,74.3,45.7,29.94,South,180,0.0,6.5,36,0.00,,---,0.00,VWS V13.01,2013-02-04 21:23:00,
2013-02-04 16:28:00,73.9,46.0,29.94,South,180,0.0,6.5,37,0.00,,---,0.00,VWS V13.01,2013-02-04 21:28:00,
2013-02-04 16:33:00,73.8,46.6,29.94,South,180,0.0,6.5,38,0.00,,---,0.00,VWS V13.01,2013-02-04 21:33:00,
2013-02-04 16:38:00,73.6,46.4,29.94,SE,135,0.0,6.5,38,0.00,,---,0.00,VWS V13.01,2013-02-04 21:38:00,
2013-02-04 16:43:00,73.6,46.4,29.94,SE,135,0.0,6.5,38,0.00,,---,0.00,VWS V13.01,2013-02-04 21:43:00,
2013-02-04 16:48:00,73.2,46.1,29.94,SE,135,0.0,6.5,38,0.00,,---,0.00,VWS V13.01,2013-02-04 21:48:00,
2013-02-04 16:53:00,73.0,46.6,29.94,SE,135,1.3,6.5,39,0.00,,---,0.00,VWS V13.01,2013-02-04 21:53:00,
2013-02-04 16:58:00,72.5,46.2,29.94,SE,135,0.0,6.5,39,0.00,,---,0.00,VWS V13.01,2013-02-04 21:58:00,
2013-02-04 17:03:00,72.3,46.7,29.94,South,180,1.1,4.3,40,0.00,,---,0.00,VWS V13.01,2013-02-04 22:03:00,
2013-02-04 17:08:00,72.5,46.8,29.94,SSE,158,2.0,4.3,40,0.00,,---,0.00,VWS V13.01,2013-02-04 22:08:00,
2013-02-04 17:13:00,72.3,46.7,29.95,SSE,158,0.0,4.5,40,0.00,,---,0.00,VWS V13.01,2013-02-04 22:13:00,
2013-02-04 17:18:00,72.5,46.8,29.95,SE,135,0.0,4.5,40,0.00,,---,0.00,VWS V13.01,2013-02-04 22:18:00,
2013-02-04 17:23:00,72.3,46.7,29.95,ESE,112,4.5,4.5,40,0.00,,---,0.00,VWS V13.01,2013-02-04 22:23:00,
2013-02-04 17:28:00,72.1,46.5,29.94,SE,135,0.0,4.5,40,0.00,,---,0.00,VWS V13.01,2013-02-04 22:28:00,
2013-02-04 17:33:00,72.0,46.3,29.94,East,90,0.0,4.5,40,0.00,,---,0.00,VWS V13.01,2013-02-04 22:33:00,
2013-02-04 17:38:00,71.8,46.2,29.95,SE,135,0.0,4.5,40,0.00,,---,0.00,VWS V13.01,2013-02-04 22:38:00,
2013-02-04 17:43:00,71.4,46.5,29.95,SSE,158,0.0,4.5,41,0.00,,---,0.00,VWS V13.01,2013-02-04 22:43:00,
2013-02-04 17:48:00,71.1,46.2,29.95,SE,135,0.0,4.5,41,0.00,,---,0.00,VWS V13.01,2013-02-04 22:48:00,
2013-02-04 17:53:00,70.9,46.0,29.95,SSE,158,1.3,4.5,41,0.00,,---,0.00,VWS V13.01,2013-02-04 22:53:00,
2013-02-04 17:58:00,70.7,46.5,29.95,South,180,0.0,4.5,42,0.00,,---,0.00,VWS V13.01,2013-02-04 22:58:00,
2013-02-04 18:03:00,70.3,46.8,29.95,SSE,158,0.0,4.3,43,0.00,,---,0.00,VWS V13.01,2013-02-04 23:03:00,
2013-02-04 18:08:00,70.2,46.6,29.95,SSE,158,0.0,4.3,43,0.00,,---,0.00,VWS V13.01,2013-02-04 23:08:00,
2013-02-04 18:13:00,69.8,46.9,29.95,ESE,112,0.0,4.3,44,0.00,,---,0.00,VWS V13.01,2013-02-04 23:13:00,
2013-02-04 18:18:00,69.3,46.4,29.95,ESE,112,0.0,4.3,44,0.00,,---,0.00,VWS V13.01,2013-02-04 23:18:00,
2013-02-04 18:23:00,69.3,47.0,29.95,ESE,112,0.0,4.3,45,0.00,,---,0.00,VWS V13.01,2013-02-04 23:23:00,
2013-02-04 18:28:00,68.9,46.7,29.96,ESE,112,0.0,4.3,45,0.00,,---,0.00,VWS V13.01,2013-02-04 23:28:00,
2013-02-04 18:33:00,68.7,47.7,29.96,ESE,112,0.0,4.3,47,0.00,,---,0.00,VWS V13.01,2013-02-04 23:33:00,
2013-02-04 18:38:00,68.4,47.4,29.96,ESE,112,0.0,4.3,47,0.00,,---,0.00,VWS V13.01,2013-02-04 23:38:00,
2013-02-04 18:43:00,68.2,47.8,29.96,ESE,112,0.0,4.3,48,0.00,,---,0.00,VWS V13.01,2013-02-04 23:43:00,
2013-02-04 18:48:00,68.2,47.8,29.96,ESE,112,0.0,4.3,48,0.00,,---,0.00,VWS V13.01,2013-02-04 23:48:00,
2013-02-04 18:53:00,68.0,48.2,29.96,ESE,112,0.0,4.3,49,0.00,,---,0.00,VWS V13.01,2013-02-04 23:53:00,
2013-02-04 18:58:00,67.5,48.2,29.96,ESE,112,0.0,4.3,50,0.00,,---,0.00,VWS V13.01,2013-02-04 23:58:00,
2013-02-04 19:03:00,67.3,48.0,29.96,ESE,112,0.0,0.0,50,0.00,,---,0.00,VWS V13.01,2013-02-05 00:03:00,
2013-02-04 19:08:00,67.1,48.4,29.96,ESE,112,0.0,0.0,51,0.00,,---,0.00,VWS V13.01,2013-02-05 00:08:00,
2013-02-04 19:13:00,66.9,48.7,29.96,ESE,112,0.0,0.0,52,0.00,,---,0.00,VWS V13.01,2013-02-05 00:13:00,
2013-02-04 19:18:00,66.7,49.1,29.97,ESE,112,0.0,0.0,53,0.00,,---,0.00,VWS V13.01,2013-02-05 00:18:00,
2013-02-04 19:23:00,66.6,48.9,29.96,ESE,112,0.0,0.0,53,0.00,,---,0.00,VWS V13.01,2013-02-05 00:23:00,
2013-02-04 19:28:00,66.4,49.2,29.96,ESE,112,0.0,0.0,54,0.00,,---,0.00,VWS V13.01,2013-02-05 00:28:00,
2013-02-04 19:33:00,66.0,49.4,29.96,ESE,112,0.0,0.0,55,0.00,,---,0.00,VWS V13.01,2013-02-05 00:33:00,
2013-02-04 19:38:00,65.8,49.7,29.97,ESE,112,0.0,0.0,56,0.00,,---,0.00,VWS V13.01,2013-02-05 00:38:00,
2013-02-04 19:43:00,65.7,49.6,29.97,ESE,112,0.0,0.0,56,0.00,,---,0.00,VWS V13.01,2013-02-05 00:43:00,
2013-02-04 19:48:00,65.3,49.7,29.97,ESE,112,0.0,0.0,57,0.00,,---,0.00,VWS V13.01,2013-02-05 00:48:00,
2013-02-04 19:53:00,65.1,50.0,29.97,ESE,112,0.0,0.0,58,0.00,,---,0.00,VWS V13.01,2013-02-05 00:53:00,
2013-02-04 19:58:00,64.8,49.7,29.97,ESE,112,0.0,0.0,58,0.00,,---,0.00,VWS V13.01,2013-02-05 00:58:00,
2013-02-04 20:03:00,64.6,49.5,29.97,ESE,112,0.0,0.0,58,0.00,,---,0.00,VWS V13.01,2013-02-05 01:03:00,
2013-02-04 20:08:00,64.6,49.5,29.97,ESE,112,0.0,0.0,58,0.00,,---,0.00,VWS V13.01,2013-02-05 01:08:00,
2013-02-04 20:13:00,64.0,49.4,29.97,ESE,112,0.0,0.0,59,0.00,,---,0.00,VWS V13.01,2013-02-05 01:13:00,
2013-02-04 20:18:00,64.0,49.4,29.97,ESE,112,0.0,0.0,59,0.00,,---,0.00,VWS V13.01,2013-02-05 01:18:00,
2013-02-04 20:23:00,63.7,49.1,29.97,ESE,112,0.0,0.0,59,0.00,,---,0.00,VWS V13.01,2013-02-05 01:23:00,
2013-02-04 20:28:00,63.5,49.4,29.97,ESE,112,0.0,0.0,60,0.00,,---,0.00,VWS V13.01,2013-02-05 01:28:00,
2013-02-04 20:33:00,63.3,49.7,29.97,ESE,112,0.0,0.0,61,0.00,,---,0.00,VWS V13.01,2013-02-05 01:33:00,
2013-02-04 20:38:00,63.0,49.3,29.98,ESE,112,0.0,0.0,61,0.00,,---,0.00,VWS V13.01,2013-02-05 01:38:00,
2013-02-04 20:43:00,63.0,49.8,29.98,ESE,112,0.0,0.0,62,0.00,,---,0.00,VWS V13.01,2013-02-05 01:43:00,
2013-02-04 20:48:00,62.8,49.6,29.98,ESE,112,0.0,0.0,62,0.00,,---,0.00,VWS V13.01,2013-02-05 01:48:00,
2013-02-04 20:53:00,62.8,49.6,29.98,ESE,112,0.0,0.0,62,0.00,,---,0.00,VWS V13.01,2013-02-05 01:53:00,
2013-02-04 20:58:00,62.4,49.2,29.98,ESE,112,0.0,0.0,62,0.00,,---,0.00,VWS V13.01,2013-02-05 01:58:00,
2013-02-04 21:03:00,62.4,49.2,29.98,ESE,112,0.0,0.0,62,0.00,,---,0.00,VWS V13.01,2013-02-05 02:03:00,
2013-02-04 21:08:00,62.2,49.5,29.98,ESE,112,0.0,0.0,63,0.00,,---,0.00,VWS V13.01,2013-02-05 02:08:00,
2013-02-04 21:13:00,62.2,49.5,29.98,ESE,112,0.0,0.0,63,0.00,,---,0.00,VWS V13.01,2013-02-05 02:13:00,
2013-02-04 21:18:00,62.1,49.8,29.98,ESE,112,0.0,0.0,64,0.00,,---,0.00,VWS V13.01,2013-02-05 02:18:00,
2013-02-04 21:23:00,61.7,49.4,29.98,ESE,112,0.0,0.0,64,0.00,,---,0.00,VWS V13.01,2013-02-05 02:23:00,
2013-02-04 21:28:00,61.7,49.8,29.98,ESE,112,0.0,0.0,65,0.00,,---,0.00,VWS V13.01,2013-02-05 02:28:00,
2013-02-04 21:33:00,61.5,50.1,29.98,ESE,112,0.0,0.0,66,0.00,,---,0.00,VWS V13.01,2013-02-05 02:33:00,
2013-02-04 21:38:00,61.5,50.5,29.98,ESE,112,0.0,0.0,67,0.00,,---,0.00,VWS V13.01,2013-02-05 02:38:00,
2013-02-04 21:43:00,61.3,50.3,29.98,ESE,112,0.0,0.0,67,0.00,,---,0.00,VWS V13.01,2013-02-05 02:43:00,
2013-02-04 21:48:00,61.3,50.3,29.98,ESE,112,0.0,0.0,67,0.00,,---,0.00,VWS V13.01,2013-02-05 02:48:00,
2013-02-04 21:53:00,61.2,50.5,29.98,ESE,112,0.0,0.0,68,0.00,,---,0.00,VWS V13.01,2013-02-05 02:53:00,
2013-02-04 21:58:00,61.0,50.4,29.98,ESE,112,0.0,0.0,68,0.00,,---,0.00,VWS V13.01,2013-02-05 02:58:00,
2013-02-04 22:03:00,61.0,50.4,29.98,ESE,112,0.0,0.0,68,0.00,,---,0.00,VWS V13.01,2013-02-05 03:03:00,
2013-02-04 22:08:00,60.8,50.2,29.98,ESE,112,0.0,0.0,68,0.00,,---,0.00,VWS V13.01,2013-02-05 03:08:00,
2013-02-04 22:13:00,61.0,50.8,29.98,ESE,112,0.0,0.0,69,0.00,,---,0.00,VWS V13.01,2013-02-05 03:13:00,
2013-02-04 22:18:00,61.0,51.1,29.98,ESE,112,0.0,0.0,70,0.00,,---,0.00,VWS V13.01,2013-02-05 03:18:00,
2013-02-04 22:22:00,60.6,50.8,29.98,ESE,112,0.0,0.0,70,0.00,,---,0.00,VWS V13.01,2013-02-05 03:22:00,
2013-02-04 22:27:00,60.4,50.6,29.98,ESE,112,0.0,0.0,70,0.00,,---,0.00,VWS V13.01,2013-02-05 03:27:00,
2013-02-04 22:32:00,60.3,50.5,29.98,ESE,112,0.0,0.0,70,0.00,,---,0.00,VWS V13.01,2013-02-05 03:32:00,
2013-02-04 22:37:00,60.1,50.3,29.98,ESE,112,0.0,0.0,70,0.00,,---,0.00,VWS V13.01,2013-02-05 03:37:00,
2013-02-04 22:42:00,59.9,50.1,29.98,ESE,112,0.0,0.0,70,0.00,,---,0.00,VWS V13.01,2013-02-05 03:42:00,
2013-02-04 22:47:00,59.9,50.1,29.98,ESE,112,0.0,0.0,70,0.00,,---,0.00,VWS V13.01,2013-02-05 03:47:00,
2013-02-04 22:52:00,59.9,50.1,29.99,ESE,112,0.0,0.0,70,0.00,,---,0.00,VWS V13.01,2013-02-05 03:52:00,
2013-02-04 22:57:00,59.7,50.3,29.99,ESE,112,0.0,0.0,71,0.00,,---,0.00,VWS V13.01,2013-02-05 03:57:00,
2013-02-04 23:02:00,59.7,50.3,29.99,ESE,112,0.0,0.0,71,0.00,,---,0.00,VWS V13.01,2013-02-05 04:02:00,
2013-02-04 23:07:00,59.5,50.1,29.99,ESE,112,0.0,0.0,71,0.00,,---,0.00,VWS V13.01,2013-02-05 04:07:00,
2013-02-04 23:12:00,59.5,50.1,29.99,ESE,112,0.0,0.0,71,0.00,,---,0.00,VWS V13.01,2013-02-05 04:12:00,
2013-02-04 23:17:00,59.4,50.0,29.99,ESE,112,0.0,0.0,71,0.00,,---,0.00,VWS V13.01,2013-02-05 04:17:00,
2013-02-04 23:22:00,59.4,50.0,29.99,ESE,112,0.0,0.0,71,0.00,,---,0.00,VWS V13.01,2013-02-05 04:22:00,
2013-02-04 23:27:00,59.2,49.8,29.99,ESE,112,0.0,0.0,71,0.00,,---,0.00,VWS V13.01,2013-02-05 04:27:00,
2013-02-04 23:32:00,59.2,50.2,29.99,ESE,112,0.0,0.0,72,0.00,,---,0.00,VWS V13.01,2013-02-05 04:32:00,
2013-02-04 23:37:00,59.0,50.0,29.98,ESE,112,0.0,0.0,72,0.00,,---,0.00,VWS V13.01,2013-02-05 04:37:00,
2013-02-04 23:42:00,59.0,50.0,29.98,ESE,112,0.0,0.0,72,0.00,,---,0.00,VWS V13.01,2013-02-05 04:42:00,
2013-02-04 23:47:00,58.8,49.8,29.98,ESE,112,0.0,0.0,72,0.00,,---,0.00,VWS V13.01,2013-02-05 04:47:00,
2013-02-04 23:52:00,58.6,49.7,29.98,ESE,112,0.0,0.0,72,0.00,,---,0.00,VWS V13.01,2013-02-05 04:52:00,
2013-02-04 23:57:00,58.5,49.5,29.98,ESE,112,0.0,0.0,72,0.00,,---,0.00,VWS V13.01,2013-02-05 04:57:00,